Location: Marse
(42.1502°N, 110.9866°W)
Time: 20:46:54
(UTC+00:00)

QB50P2 - Pass Details

Date: 09 July 2022
Orbit: 590 x 605 km, 97.9° (Epoch: 11 August)

Event Time Altitude Azimuth Distance (km) Brightness Sun altitude
Rises 09:33:15 0° 2° (N) 2,866 ? -19.4°
Reaches altitude 10° 09:35:37 10° 352° (N) 1,959 ? -19.2°
Maximum altitude 09:39:20 30° 291° (WNW) 1,083 ? -18.9°
Enters shadow 09:40:21 27° 264° (W) 1,169 ? -18.8°
